Flag for U.S.A. Weather past 2 weeks in Brockton, Massachusetts, U.S.A.

Now
29 °F

Chilly.


Feels Like: 19 °F
Forecast: 21 / 35 °F
Wind: 12 mph from Southeast

Location: East Milton

Current Time: Jan 30, 2015 at 8:17:14 AM

Latest Report: Jan 30, 2015 at 6:54 AM


Visibility: N/A

Pressure: 29.86 "Hg

Humidity: 96%

Dew point: 28 °F

Location of BrocktonLocation

Historic Weather in Brockton — Graph

°F

Brockton temperature yesterday

Maximum temperature yesterday: 32 °F (at 2:54 PM)
Minimum temperature yesterday: 12 °F (at 1:54 AM)
Average temperature yesterday: 22 °F

Past Weeks' High & Low Weather Summary

 TemperatureHumidityPressure
High50 °F (Jan 18, 1:54 PM)100% (Jan 18, 10:54 PM)30.37 "Hg (Jan 18, 10:54 PM)
Low6 °F (Jan 17, 5:54 AM)28% (Jan 17, 1:54 PM)29.16 "Hg (Jan 24, 4:54 PM)
Average25 °F71%29.94 "Hg
* Reported Jan 15 6:54 AM — Jan 30 6:54 AM, Brockton, Weather by CustomWeather, © 2014

Note: Actual official high and low records may vary slightly from our data, if they occured in-between our weather recording intervals... More about our weather records

Advertising

Brockton weather history for previous 24 hours

 ConditionsComfort  
Time TempWeatherWind HumidityBarometerVisibility
6:54 AM
Jan 30
29 °FChilly.12 mph96%29.86 "HgN/A
5:54 AM28 °FChilly.15 mph96%29.87 "HgN/A
4:54 AM28 °FChilly.13 mph93%29.89 "HgN/A
3:54 AM28 °FChilly.15 mph93%29.91 "HgN/A
2:54 AM27 °FChilly.12 mph92%29.95 "HgN/A
1:54 AM26 °FChilly.12 mph88%29.99 "HgN/A
12:54 AM26 °FChilly.12 mph84%30.02 "HgN/A
11:54 PM
Jan 29
26 °FChilly.9 mph77%30.06 "HgN/A
10:54 PM25 °FChilly.12 mph78%30.09 "HgN/A
9:54 PM25 °FChilly.12 mph75%30.11 "HgN/A
8:54 PM25 °FChilly.10 mph75%30.11 "HgN/A
7:54 PM25 °FChilly.12 mph69%30.16 "HgN/A
6:54 PM26 °FChilly.9 mph66%30.17 "HgN/A
5:54 PM27 °FChilly.10 mph69%30.19 "HgN/A
4:54 PM27 °FChilly.6 mph66%30.18 "HgN/A
3:54 PM31 °FChilly.6 mph54%30.19 "HgN/A
2:54 PM32 °FChilly.3 mph50%30.21 "HgN/A
1:54 PM31 °FChilly.7 mph52%30.23 "HgN/A
12:54 PM30 °FChilly.No wind49%30.25 "HgN/A
11:54 AM28 °FChilly.5 mph43%30.28 "HgN/A
10:54 AM25 °FChilly.3 mph40%30.32 "HgN/A
9:54 AM23 °FCold.N/A33%30.32 "HgN/A
8:54 AM16 °FCold.N/A43%30.32 "HgN/A
Weather by CustomWeather, © 2014

See weather overviewHow to use our weather pages